TimeCET,TemperatureF,Dew PointF,Humidity,Sea Level PressureIn,VisibilityMPH,Wind Direction,Wind SpeedMPH,Gust SpeedMPH,PrecipitationIn,Events,Conditions,WindDirDegrees,DateUTC
12:00 AM,28.4,26.6,93,29.92,0.6,Calm,Calm,-,N/A,,Overcast,0,2013-02-12 23:00:00
12:15 AM,28.4,28.4,100,29.92,0.4,NW,1.2,-,N/A,Fog,Light Freezing Fog,320,2013-02-12 23:15:00
12:49 AM,28.4,26.6,93,29.92,0.5,West,2.3,-,N/A,Fog,Light Freezing Fog,270,2013-02-12 23:49:00
1:00 AM,28.4,26.6,93,29.92,0.5,West,2.3,-,N/A,Fog,Light Freezing Fog,260,2013-02-13 00:00:00
1:23 AM,28.4,26.6,93,29.92,1.2,West,2.3,-,N/A,,Overcast,270,2013-02-13 00:23:00
2:00 AM,28.4,26.6,93,29.95,1.2,WSW,1.2,-,N/A,,Overcast,250,2013-02-13 01:00:00
3:00 AM,28.4,26.6,93,29.95,2.2,NW,2.3,-,N/A,,Overcast,310,2013-02-13 02:00:00
4:02 AM,28.4,26.6,93,29.95,3.1,WNW,4.6,-,N/A,,Overcast,300,2013-02-13 03:02:00
5:00 AM,28.4,26.6,93,29.98,3.7,West,2.3,-,N/A,,Overcast,270,2013-02-13 04:00:00
6:00 AM,28.4,28.4,100,29.98,3.7,WNW,4.6,-,N/A,,Overcast,300,2013-02-13 05:00:00
6:11 AM,28.4,28.4,100,30.01,2.8,WNW,5.8,-,N/A,,Overcast,300,2013-02-13 05:11:00
6:49 AM,28.4,28.4,100,30.01,0.4,WNW,5.8,-,N/A,Fog,Light Freezing Fog,290,2013-02-13 05:49:00
7:00 AM,28.4,28.4,100,30.01,0.3,WNW,5.8,-,N/A,Fog,Light Freezing Fog,290,2013-02-13 06:00:00
9:00 AM,28.4,28.4,100,30.06,0.5,West,8.1,-,N/A,Fog,Light Freezing Fog,280,2013-02-13 08:00:00
9:15 AM,28.4,28.4,100,30.06,0.6,WNW,8.1,-,N/A,,Overcast,290,2013-02-13 08:15:00
10:00 AM,28.4,28.4,100,30.06,0.9,WNW,8.1,-,N/A,,Overcast,290,2013-02-13 09:00:00
10:30 AM,28.4,28.4,100,30.09,1.9,WNW,10.4,-,N/A,,Overcast,300,2013-02-13 09:30:00
11:00 AM,28.4,28.4,100,30.09,1.9,WNW,10.4,-,N/A,,Overcast,300,2013-02-13 10:00:00
12:00 PM,30.2,26.6,86,30.12,2.2,WNW,10.4,-,N/A,,Overcast,300,2013-02-13 11:00:00
1:00 PM,30.2,28.4,93,30.12,2.2,WNW,11.5,-,N/A,,Overcast,290,2013-02-13 12:00:00
2:00 PM,30.2,28.4,93,30.15,2.2,WNW,10.4,-,N/A,,Overcast,300,2013-02-13 13:00:00
3:00 PM,30.2,28.4,93,30.15,1.6,WNW,9.2,-,N/A,Snow,Light Snow,300,2013-02-13 14:00:00
4:00 PM,30.2,28.4,93,30.18,1.2,NW,8.1,-,N/A,Snow,Light Snow,310,2013-02-13 15:00:00
5:00 PM,30.2,26.6,86,30.18,1.9,WNW,9.2,-,N/A,Snow,Light Snow,300,2013-02-13 16:00:00
6:00 PM,28.4,26.6,93,30.21,1.9,WNW,10.4,-,N/A,,Overcast,300,2013-02-13 17:00:00
6:14 PM,28.4,26.6,93,30.21,4.3,NW,10.4,-,N/A,,Overcast,310,2013-02-13 17:14:00
7:00 PM,28.4,26.6,93,30.21,4.3,NW,10.4,-,N/A,,Overcast,310,2013-02-13 18:00:00
8:00 PM,28.4,26.6,93,30.21,4.3,NW,9.2,-,N/A,,Mostly Cloudy,320,2013-02-13 19:00:00
9:00 PM,28.4,26.6,93,30.24,4.3,NW,10.4,-,N/A,,Mostly Cloudy,310,2013-02-13 20:00:00
10:00 PM,28.4,26.6,93,30.24,4.3,NW,8.1,-,N/A,,Mostly Cloudy,310,2013-02-13 21:00:00
11:00 PM,28.4,26.6,93,30.27,4.3,NW,8.1,-,N/A,,Mostly Cloudy,310,2013-02-13 22:00:00